sat.trackr.live / text

‹ back to catalog

STARLINK-31970

NORAD 59928 · 2024-106G

PAYLOAD ACTIVE UNKNOWN

§ Identity

Operator
Country
US
Launch date
2024-06-01
Launch site
AFETR
Launch vehicle
Mass (kg)
RCS (m²)

Purposes: comms

External: N2YO · Heavens-Above · Gunter

§ Orbital elements

Epoch: 2026-09-21T03:20:11.913792Z

Period
94.27 min
Inclination
43.0038°
Eccentricity
0.0002154
Mean motion
15.27534366 rev/d
Perigee alt
481.7 km
Apogee alt
484.7 km
Semi-major
6,861.3 km
B*
-9.1984e-5
RAAN
308.7840°
Arg perigee
290.1555°
Mean anomaly
69.9065°
Rev number
13,046

§ Raw data

STARLINK-319701 59928U 24106G   26264.13902678 -.00002789  00000+0 -91984-4 0  99942 59928  43.0038 308.7840 0002154 290.1555  69.9065 15.27534366130463

JSON: /api/v1/satellites/59928 · /tle

For live sub-satellite position, see the globe view (requires WebGL).

§ Visibility from observer

Set your observer location to see the next 7 days of passes ≥ 10°. The values pass through the URL so the page stays shareable.

No JS? Fill the form by hand. The geolocation button needs JavaScript.